Location: *
(10.4782°N, 67.2163°W)
Time: 13:08:12
(UTC+00:00)

Ariane H10-3 - Pass Details

Date: 23 May 2024
Orbit: 344 x 23436 km, 7.7° (Epoch: 24 June)

Event Time Altitude Azimuth Distance (km) Brightness Sun altitude
Exits shadow 08:49:23 35° 160° (SSE) 575 2.3 -18.1°
Drops below altitude 10° 08:51:18 10° 106° (ESE) 1,293 4.9 -17.7°
Sets 08:53:22 0° 96° (E) 2,373 6.6 -17.2°
